ARIANE 1 DEB, 40774

Orbit data source: Space-Track

ARIANE 1 DEB, 40774 is space debris in HEO originally from a launch on Mon, 24 Dec 1979 UTC launched from the French Guiana (FRGUI). Debris objects in space refer to the collection of defunct objects orbiting the Earth. Examples of debris include non-operational satellites, rocket bodies, and fragments generated from explosions, collisions, or faulty payload assembly.

Loading next visibility...
Identifier
40774, 1979-104AB
Orbit
HEO
Country
Flag of FRFR
Related business
Manufacturer
Unknown
Mission
Spacecraft
Bus & Motor
Unknown
Mass
Unknown
Launch date (UTC)
1979-12-24 (46 years ago)
Launch vehicle
Unknown
Launch site
French Guiana (FRGUI)
Object type
Payload
Rocket body
Debris
Shape & HBR
Unknown shape, 0.1 m
Radar Cross Section
Small (<0.1 m²)

Expand to show TLE details & history
Last TLE update: 1 month ago

TLE from 1 month ago
0 ARIANE 1 DEB
1 40774U 79104AB  25269.83629606  .00001264  00000-0  26132-2 0  9996
2 40774  18.5143 236.8696 5910155 164.3627 227.4436  4.00554377 30018
Epoch: 2025-09-26T20:04Z
TLE epoch observation values (Epoch: 2025-09-26T20:04:15.979Z)
Latitude
-0.00001°
Longitude
-70.10068°
Altitude
18,907.126 km
Speed
2.78 km/s
True Right ascension
15h 47m 22s
True Declination
0° 00' 00"
Sunlit
Object was in daylight at epoch
Visualization orbit readout
Latitude
Unknown
Longitude
Unknown
Altitude
Unknown
Speed
Unknown
Apparent Right ascension
Unknown
Apparent Declination
Unknown
Sunlit
N/A
Visualization observer readout
Local Sidereal Time
18:42:20
Azimuth
Unknown
Elevation
Unknown
Doppler factor
Unknown
Orbital elements
Apogee altitude
20,274.845 km
Perigee altitude
473.246 km
Semi-major axis
16,752.182 km
Eccentricity
0.59102
Inclination
18.5143°
RAAN
236.8696°
Arg. of periapsis
164.3627°
True anomaly
195.65386°
Mean anomaly
227.4436°
Eccentric anomaly
210.33903°
Mean motion
1.001 °/min
Orbital period
359.64 mins
BSTAR
0.0026132
Loading maneuver chart data...
Computing Atmospheric mass density...
Loading historical data...
Loading historical data...
Loading historical data...
Loading historical data...
Loading historical data...
Loading historical data...
Loading historical data...

Documentation

Showing up to 5 results
|